TimeEDT,TemperatureF,Dew PointF,Humidity,Sea Level PressureIn,VisibilityMPH,Wind Direction,Wind SpeedMPH,Gust SpeedMPH,PrecipitationIn,Events,Conditions,WindDirDegrees,DateUTC
12:15 AM,69.3,64.6,85,30.01,0.2,Calm,Calm,-,N/A,Fog,Fog,0,2013-09-09 04:15:00
12:35 AM,68.4,64.8,88,30.02,0.2,Calm,Calm,-,N/A,Fog,Fog,0,2013-09-09 04:35:00
12:55 AM,68.2,64.2,87,30.02,0.2,Calm,Calm,-,N/A,Fog,Fog,0,2013-09-09 04:55:00
1:15 AM,67.6,63.7,87,30.02,0.2,Calm,Calm,-,N/A,Fog,Fog,0,2013-09-09 05:15:00
1:35 AM,67.5,64.0,89,30.03,0.2,Calm,Calm,-,N/A,Fog,Fog,0,2013-09-09 05:35:00
1:55 AM,67.3,64.6,91,30.03,0.5,Calm,Calm,-,N/A,Fog,Fog,0,2013-09-09 05:55:00
2:15 AM,68.0,65.1,90,30.03,0.2,Calm,Calm,-,N/A,Fog,Fog,0,2013-09-09 06:15:00
2:35 AM,67.8,64.4,89,30.03,0.2,Calm,Calm,-,N/A,Fog,Fog,0,2013-09-09 06:35:00
2:55 AM,68.2,64.8,89,30.03,1.0,Calm,Calm,-,N/A,,Overcast,0,2013-09-09 06:55:00
3:15 AM,67.6,64.4,89,30.03,7.0,East,4.6,-,N/A,,Overcast,80,2013-09-09 07:15:00
3:35 AM,68.2,63.7,85,30.03,0.2,Calm,Calm,-,N/A,Fog,Fog,0,2013-09-09 07:35:00
3:55 AM,68.9,63.0,81,30.04,0.2,Calm,Calm,-,N/A,,Haze,0,2013-09-09 07:55:00
4:15 AM,68.2,63.7,85,30.04,0.2,Calm,Calm,-,N/A,Fog,Fog,0,2013-09-09 08:15:00
4:35 AM,68.4,63.7,85,30.04,0.8,Calm,Calm,-,N/A,,Overcast,0,2013-09-09 08:35:00
4:55 AM,68.9,64.0,84,30.05,4.0,Calm,Calm,-,N/A,,Haze,0,2013-09-09 08:55:00
5:15 AM,68.0,64.6,89,30.05,1.8,Calm,Calm,-,N/A,,Overcast,0,2013-09-09 09:15:00
5:35 AM,68.2,64.4,88,30.06,1.0,Calm,Calm,-,N/A,,Overcast,0,2013-09-09 09:35:00
5:55 AM,68.2,64.0,87,30.07,1.0,Calm,Calm,-,N/A,,Mostly Cloudy,0,2013-09-09 09:55:00
6:15 AM,67.8,64.4,89,30.07,2.0,Calm,Calm,-,N/A,,Overcast,0,2013-09-09 10:15:00
6:35 AM,67.5,64.8,91,30.08,0.8,Calm,Calm,-,N/A,,Overcast,0,2013-09-09 10:35:00
6:55 AM,68.2,65.1,90,30.09,0.2,Calm,Calm,-,N/A,Fog,Fog,0,2013-09-09 10:55:00
7:15 AM,67.1,64.9,93,30.10,0.5,Calm,Calm,-,N/A,Fog,Fog,0,2013-09-09 11:15:00
7:35 AM,68.2,65.3,90,30.10,0.5,Calm,Calm,-,N/A,Fog,Fog,0,2013-09-09 11:35:00
7:55 AM,68.9,66.2,91,30.11,1.5,Calm,Calm,-,N/A,,Overcast,0,2013-09-09 11:55:00
8:15 AM,70.0,66.2,88,30.12,4.0,NE,3.5,-,N/A,,Mostly Cloudy,40,2013-09-09 12:15:00
8:35 AM,70.7,65.8,85,30.12,0.8,NE,4.6,-,N/A,,Haze,40,2013-09-09 12:35:00
8:55 AM,72.7,66.2,80,30.13,10.0,ENE,5.8,-,N/A,,Clear,60,2013-09-09 12:55:00
9:15 AM,75.0,65.8,73,30.13,10.0,ENE,6.9,-,N/A,,Clear,70,2013-09-09 13:15:00
9:35 AM,76.3,65.7,70,30.14,10.0,ENE,5.8,-,N/A,,Clear,70,2013-09-09 13:35:00
9:55 AM,77.5,65.8,67,30.15,10.0,ENE,8.1,-,N/A,,Clear,60,2013-09-09 13:55:00
10:15 AM,77.9,66.0,67,30.16,7.0,ENE,6.9,-,N/A,,Clear,60,2013-09-09 14:15:00
10:35 AM,79.2,66.4,65,30.16,10.0,ENE,8.1,-,N/A,,Clear,70,2013-09-09 14:35:00
10:55 AM,78.3,66.4,67,30.16,10.0,ENE,5.8,-,N/A,,Clear,70,2013-09-09 14:55:00
11:15 AM,79.9,67.1,65,30.16,5.0,NE,6.9,-,N/A,,Haze,50,2013-09-09 15:15:00
11:35 AM,81.0,66.7,62,30.16,7.0,NE,6.9,-,N/A,,Clear,40,2013-09-09 15:35:00
11:55 AM,81.5,66.9,61,30.16,2.5,NNE,5.8,-,N/A,,Haze,30,2013-09-09 15:55:00
12:15 PM,81.9,64.8,56,30.16,7.0,East,6.9,-,N/A,,Scattered Clouds,100,2013-09-09 16:15:00
12:35 PM,82.8,66.4,58,30.16,3.0,NE,4.6,-,N/A,,Haze,50,2013-09-09 16:35:00
12:55 PM,81.5,65.7,58,30.16,0.5,ESE,3.5,-,N/A,,Haze,120,2013-09-09 16:55:00
1:15 PM,83.7,66.0,55,30.15,0.8,NE,4.6,-,N/A,,Haze,40,2013-09-09 17:15:00
1:35 PM,82.8,64.8,54,30.15,0.5,Calm,Calm,-,N/A,,Haze,0,2013-09-09 17:35:00
1:55 PM,83.7,64.2,52,30.14,0.2,Calm,Calm,-,N/A,,Haze,0,2013-09-09 17:55:00
2:15 PM,85.3,64.2,49,30.14,0.5,ENE,3.5,-,N/A,,Haze,70,2013-09-09 18:15:00
2:35 PM,84.9,63.9,49,30.14,0.2,SE,4.6,-,N/A,,Haze,130,2013-09-09 18:35:00
2:55 PM,84.7,64.9,51,30.14,1.0,NE,4.6,-,N/A,,Haze,40,2013-09-09 18:55:00
3:15 PM,83.3,64.9,54,30.13,7.0,Calm,Calm,-,N/A,,Scattered Clouds,0,2013-09-09 19:15:00
3:35 PM,84.0,65.7,54,30.13,0.8,NE,4.6,-,N/A,,Haze,40,2013-09-09 19:35:00
3:55 PM,84.7,65.7,53,30.12,2.0,NE,3.5,-,N/A,,Haze,50,2013-09-09 19:55:00
4:15 PM,85.1,65.5,52,30.13,7.0,East,5.8,-,N/A,,Scattered Clouds,90,2013-09-09 20:15:00
4:35 PM,84.7,65.7,53,30.12,10.0,East,5.8,-,N/A,,Scattered Clouds,100,2013-09-09 20:35:00
4:55 PM,85.1,63.9,49,30.12,10.0,East,5.8,-,N/A,,Scattered Clouds,80,2013-09-09 20:55:00
5:15 PM,84.4,64.4,51,30.12,5.0,East,4.6,-,N/A,,Haze,80,2013-09-09 21:15:00
5:35 PM,84.0,63.5,50,30.12,4.0,SE,5.8,-,N/A,,Haze,130,2013-09-09 21:35:00
5:55 PM,84.2,63.7,50,30.12,7.0,SE,5.8,-,N/A,,Clear,140,2013-09-09 21:55:00
6:15 PM,83.5,64.6,53,30.12,5.0,SE,4.6,-,N/A,,Haze,130,2013-09-09 22:15:00
6:35 PM,82.6,64.9,55,30.12,1.2,SE,5.8,-,N/A,,Haze,140,2013-09-09 22:35:00
6:55 PM,81.5,65.5,58,30.12,2.5,Calm,Calm,-,N/A,,Haze,0,2013-09-09 22:55:00
7:15 PM,79.9,66.2,63,30.13,5.0,Calm,Calm,-,N/A,,Haze,0,2013-09-09 23:15:00
7:35 PM,79.2,64.4,60,30.13,0.5,Calm,Calm,-,N/A,,Haze,0,2013-09-09 23:35:00
7:55 PM,76.3,66.0,70,30.13,4.0,Calm,Calm,-,N/A,,Haze,0,2013-09-09 23:55:00
8:15 PM,75.4,66.2,73,30.13,1.0,Calm,Calm,-,N/A,,Haze,0,2013-09-10 00:15:00
8:35 PM,75.0,65.8,73,30.14,1.0,Calm,Calm,-,N/A,,Haze,0,2013-09-10 00:35:00
8:55 PM,72.7,66.4,81,30.15,1.8,Calm,Calm,-,N/A,,Haze,0,2013-09-10 00:55:00
9:15 PM,73.9,66.4,77,30.16,1.2,Calm,Calm,-,N/A,,Haze,0,2013-09-10 01:15:00
9:35 PM,71.4,67.3,87,30.16,1.5,Calm,Calm,-,N/A,,Mist,0,2013-09-10 01:35:00
9:55 PM,71.2,67.5,88,30.16,4.0,Calm,Calm,-,N/A,,Clear,0,2013-09-10 01:55:00
10:15 PM,71.1,68.0,90,30.16,2.0,Calm,Calm,-,N/A,,Clear,0,2013-09-10 02:15:00
10:35 PM,71.8,68.2,88,30.16,2.5,East,3.5,-,N/A,,Clear,90,2013-09-10 02:35:00
10:55 PM,73.0,68.0,84,30.17,10.0,East,5.8,-,N/A,,Clear,100,2013-09-10 02:55:00
11:15 PM,73.4,68.0,83,30.16,7.0,ESE,3.5,-,N/A,,Clear,120,2013-09-10 03:15:00
11:35 PM,73.4,67.5,82,30.17,5.0,Calm,Calm,-,N/A,,Haze,0,2013-09-10 03:35:00
11:55 PM,73.4,67.5,82,30.17,4.0,SE,3.5,-,N/A,,Haze,130,2013-09-10 03:55:00